Hourly Data Report for September 03, 2017

All times are specified in Local Standard Time (LST). Add 1 hour to adjust for Daylight Saving Time where and when it is observed.

TORONTO INTL A
ONTARIO

43°40'36.000" N
79°37'50.000" W
173.40 m
6158731
71624
YYZ

Download Data

Hourly Data (September 2017)
Hourly Data Report for September 3, 2017
Temp Definition
°C
Dew Point Temp Definition
°C
Rel Hum Definition
%
Wind Dir Definition
10's deg

Wind Spd Definition
km/h
Visibility Definition
km
Stn Press Definition
kPa
Hmdx Definition


Wind Chill Definition


Weather Definition


TIME
00:00 Legend Double Dagger 16.2 12.3 77 17 10 24.1 99.24     LegendNANA
01:00 Legend Double Dagger 15.6 12.4 81 18 13 24.1 99.19     Cloudy
02:00 Legend Double Dagger 14.8 13.3 91 15 10 24.1 99.09     Rain
03:00 Legend Double Dagger 14.3 13.3 93 16 8 11.3 99.02     Rain
04:00 Legend Double Dagger 14.4 13.6 95 16 5 4.0 98.96     Rain,Fog
05:00 Legend Double Dagger 14.4 13.7 96 14 5 12.9 98.93     Rain
06:00 Legend Double Dagger 14.6 13.9 96 36 3 24.1 98.94     Rain
07:00 Legend Double Dagger 14.7 13.9 95 26 13 24.1 98.97     Cloudy
08:00 Legend Double Dagger 15.1 13.7 91 27 14 24.1 98.98     LegendNANA
09:00 Legend Double Dagger 16.1 13.9 86 27 12 24.1 98.95     LegendNANA
10:00 Legend Double Dagger 18.3 13.6 74 31 23 24.1 98.95     Mostly Cloudy
11:00 Legend Double Dagger 18.8 13.8 73 30 21 24.1 98.95     LegendNANA
12:00 Legend Double Dagger 19.9 13.5 66 26 17 24.1 98.94     LegendNANA
13:00 Legend Double Dagger 17.1 14.4 84 28 18 19.3 98.94     Rain Showers
14:00 Legend Double Dagger 20.0 11.7 58 29 37 24.1 98.90     LegendNANA
15:00 Legend Double Dagger 21.0 12.2 57 28 35 24.1 98.93     LegendNANA
16:00 Legend Double Dagger 21.0 11.2 53 29 27 24.1 98.96     Mostly Cloudy
17:00 Legend Double Dagger 21.2 10.2 49 29 32 24.1 98.99     LegendNANA
18:00 Legend Double Dagger 19.6 12.0 61 29 27 24.1 99.07     LegendNANA
19:00 Legend Double Dagger 17.3 12.2 72 27 14 24.1 99.08     Mainly Clear
20:00 Legend Double Dagger 16.4 12.7 79 25 14 24.1 99.12     LegendNANA
21:00 Legend Double Dagger 15.7 12.5 81 24 12 24.1 99.12     LegendNANA
22:00 Legend Double Dagger 15.4 12.9 85 24 12 24.1 99.08     Mostly Cloudy
23:00 Legend Double Dagger 15.0 12.7 86 25 11 24.1 99.06     LegendNANA

Notes on Data Quality.

Legend

  • E = Estimated
  • M = Missing
  • NA = Not Available
  • ‡ = Partner data that is not subject to review by the National Climate Archives
Date modified: